Retour au catalogue

STARLINK-34326

ActifCommunicationsVLEO
NORAD 64221·PAYLOAD·🇺🇸 United States

Lancé May 31, 2025 depuis Vandenberg Space Force Base

Loading…

Prochains Passages (prochaines 24 heures)

TLE

FraisSource: CelesTrak SupGP

Époque: Sep 14, 2026, 20:50 UTC

1 64221C 25117U   26257.86854167  .00055119  00000+0  16285-2 0  2579
2 64221  53.1579 237.9087 0001394  97.0878 198.3328 15.34363990    17

Suivez STARLINK-34326 en temps réel avec AllMySat

Download on the App Store